Location: Ar Ranvel
(48.3000°N, 4.8833°W)
Time: 09:35:05
(UTC+00:00)

Cosmos 2333 - Pass Details

Date: 16 June 2021
Orbit: 832 x 864 km, 70.9° (Epoch: 26 July)

Event Time Altitude Azimuth Distance (km) Brightness Sun altitude
Exits shadow 22:39:36 - 206° (SSW) 2,698 6.4 -14.8°
Reaches altitude 10° 22:40:09 10° 206° (SSW) 2,493 6.3 -14.9°
Maximum altitude 22:45:54 89° 125° (SE) 864 4.2 -15.3°
Drops below altitude 10° 22:51:39 10° 28° (NNE) 2,490 7.2 -15.6°
Sets 22:54:06 0° 29° (NNE) 3,425 8.0 -15.8°
